SUPERBIRD-B3

Last updated on Thu Nov 06 2025 00:02:49 GMT+0000 (Coordinated Universal Time)

1 43271U 18033A 25308.92471873 -.00000080 00000+0 00000+0 0 9998 2 43271 0.0080 286.5519 0001171 286.7492 326.0300 1.00269545 27815
UTC large
Height (km)
Speed (km/s)
/
Latitude / Longitude
Inclination (degrees)
Orbital Period (minutes)
Azimuth
Elevation
Range (km)
Doppler Factor

Next 0 passes for location: London (51.5072 / 0.1276)

Sorry there are no passes over London.